Weather History for Kars, Turkey

Change the Weather History Date:

Wednesday, August 27, 2014

  Actual Average Record
Temperature  
Mean Temperature 68 °F -  
Max Temperature 87 °F 72 °F - ()
Min Temperature 48 °F 42 °F - ()
Cooling Degree Days 2    
Growing Degree Days 18 (Base 50)    
Moisture  
Dew Point 44 °F    
Average Humidity 44    
Maximum Humidity 82    
Minimum Humidity 10    
Precipitation  
Precipitation 0.00 in 0.04 in - ()
Sea Level Pressure  
Sea Level Pressure 30.19 in    
Wind  
Wind Speed 3 mph ()    
Max Wind Speed 13 mph    
Max Gust Speed -    
Visibility 6.1 miles    
Events Thunderstorm    
T = Trace of Precipitation, MM = Missing Value Source: Averaged Metar Reports

Daily Weather History Graph

Daily Weather History Graph

Search for Another Location

Airport:

Trip Planner

Search our weather history database for the weather conditions in past years. The results will help you decide how hot, cold, wet, or windy it might be!

Date:

Astronomy

Aug. 27, 2014 Rise Set
Actual Time 5:29 AM EEST 6:48 PM EEST
Civil Twilight 5:01 AM EEST 7:16 PM EEST
Nautical Twilight 4:27 AM EEST 7:50 PM EEST
Astronomical Twilight 3:51 AM EEST 8:26 PM EEST
Moon 7:05 AM EEST (8/27) 7:28 PM EEST (8/27)
Length of Visible Light 14h 15m
Length of Day
13h 18m
Waxing Crescent, 3% of the Moon is Illuminated
Aug 27
Waxing Crescent
Sep 2
First Quarter
Sep 9
Full
Sep 16
Last Quarter
Sep 24
New

Hourly Weather History & Observations

Time (EEST) Temp. Dew Point Humidity Pressure Visibility Wind Dir Wind Speed Gust Speed Precip Events Conditions
12:00 AM 57 °F 46 °F 56%  in 6 mi ESE 5.8 mph - -  
12:50 AM 57.2 °F 46.4 °F 67% 30.27 in - WNW 3.5 mph - N/A   Clear
1:50 AM 57.2 °F 46.4 °F 67% 30.24 in - Calm Calm - N/A   Clear
3:00 AM 55 °F 46 °F 62%  in 6 mi Calm Calm - -  
3:50 AM 53.6 °F 44.6 °F 72% 30.24 in - WNW 4.6 mph - N/A   Clear
4:50 AM 51.8 °F 44.6 °F 76% 30.24 in - Calm Calm - N/A   Clear
5:50 AM 50.0 °F 44.6 °F 82% 30.24 in - Calm Calm - N/A   Clear
6:00 AM 50 °F 45 °F 75%  in 6 mi Calm Calm - -  
6:50 AM 55.4 °F 46.4 °F 72% 30.24 in - Calm Calm - N/A   Clear
7:50 AM 60.8 °F 46.4 °F 59% 30.24 in 6.2 mi Calm Calm - N/A   Partly Cloudy
8:50 AM 68.0 °F 46.4 °F 46% 30.24 in - Variable 1.2 mph - N/A   Clear
9:00 AM 67 °F 46 °F 36%  in 6 mi WNW 1.2 mph - -  
9:50 AM 73.4 °F 44.6 °F 36% 30.24 in - Variable 2.3 mph - N/A   Clear
10:50 AM 78.8 °F 44.6 °F 30% 30.21 in - NNE 5.8 mph - N/A   Clear
12:00 PM 81 °F 45 °F 18%  in 6 mi NNE 5.8 mph - -   Scattered Clouds
12:50 PM 84.2 °F 41.0 °F 22% 30.18 in 6.2 mi SSW 4.6 mph - N/A   Partly Cloudy
1:50 PM 86.0 °F 41.0 °F 20% 30.15 in 6.2 mi Variable 4.6 mph - N/A   Scattered Clouds
2:50 PM 86.0 °F 41.0 °F 20% 30.15 in 6.2 mi Variable 4.6 mph - N/A Thunderstorm Thunderstorm
3:00 PM 84 °F 37 °F 10%  in 6 mi NE 5.8 mph - - Thunderstorm Thunderstorm
3:50 PM 84.2 °F 39.2 °F 20% 30.12 in 6.2 mi Variable 1.2 mph - N/A Thunderstorm Thunderstorm
4:50 PM 84.2 °F 37.4 °F 19% 30.12 in 6.2 mi SSE 8.1 mph - N/A Thunderstorm Thunderstorm
5:50 PM 82.4 °F 37.4 °F 20% 30.12 in 6.2 mi Variable 1.2 mph - N/A   Mostly Cloudy
6:00 PM 82 °F 37 °F 11%  in 6 mi ESE 1.2 mph - -   Mostly Cloudy
6:50 PM 77.0 °F 42.8 °F 29% 30.12 in 6.2 mi Variable 2.3 mph - N/A   Mostly Cloudy
7:50 PM 71.6 °F 41.0 °F 33% 30.12 in 6.2 mi SE 9.2 mph - N/A   Mostly Cloudy
8:50 PM 69.8 °F 44.6 °F 40% 30.15 in 6.2 mi Variable 2.3 mph - N/A   Scattered Clouds
9:00 PM 69 °F 44 °F 29%  in 6 mi SSW 2.3 mph - -   Partly Cloudy
9:50 PM 69.8 °F 51.8 °F 53% 30.15 in 6.2 mi NE 12.7 mph - N/A   Scattered Clouds
10:50 PM 64.4 °F 51.8 °F 64% 30.15 in 6.2 mi NE 11.5 mph - N/A   Scattered Clouds
11:50 PM 64.4 °F 51.8 °F 64% 30.18 in 6.2 mi NE 3.5 mph - N/A   Scattered Clouds